IRIDIUM 106 1 41917U 17003A 25259.60289684 .00000107 00000+0 31083-4 0 9995 2 41917 86.4020 202.8093 0002667 81.8271 278.3227 14.34218479453990 IRIDIUM 103 1 41918U 17003B 25259.59021135 .00000195 00000+0 62622-4 0 9999 2 41918 86.4020 202.7153 0002423 96.9360 263.2111 14.34218588454013 IRIDIUM 109 1 41919U 17003C 25259.59655320 .00000191 00000+0 61222-4 0 9990 2 41919 86.4022 202.7676 0002126 88.0115 272.1324 14.34219238453989 IRIDIUM 102 1 41920U 17003D 25259.56484015 .00000209 00000+0 67617-4 0 9994 2 41920 86.4022 202.7103 0002152 83.3977 276.7464 14.34218708454065 IRIDIUM 105 1 41921U 17003E 25259.46586930 .00000294 00000+0 97951-4 0 9991 2 41921 86.4048 171.2644 0002214 87.8460 272.2989 14.34206551455909 IRIDIUM 104 1 41922U 17003F 25259.57752498 .00000079 00000+0 21092-4 0 9992 2 41922 86.4021 202.7433 0002025 94.0570 266.0858 14.34218443454053 IRIDIUM 114 1 41923U 17003G 25259.58386809 .00000232 00000+0 75613-4 0 9992 2 41923 86.4022 202.7250 0002367 89.6156 270.5311 14.34218016454039 IRIDIUM 108 1 41924U 17003H 25259.47262140 .00000019 00000+0 -40665-6 0 9997 2 41924 86.4042 171.1572 0002272 79.5481 280.5970 14.34217852455874 IRIDIUM 112 1 41925U 17003J 25259.57118128 .00000114 00000+0 33560-4 0 9994 2 41925 86.4017 202.5850 0002119 86.0030 274.1408 14.34218961454054 IRIDIUM 111 1 41926U 17003K 25259.55849763 .00000248 00000+0 81390-4 0 9991 2 41926 86.4019 202.6547 0002389 85.5076 274.6393 14.34219075454037 IRIDIUM 113 1 42803U 17039A 25259.53846173 -.00000018 00000+0 -13604-4 0 9995 2 42803 86.3912 76.5537 0001866 93.4433 266.6976 14.34217343431965 IRIDIUM 123 1 42804U 17039B 25259.57994193 .00000008 00000+0 -42258-5 0 9992 2 42804 86.3927 108.0390 0002281 90.1602 269.9855 14.34217661430733 IRIDIUM 120 1 42805U 17039C 25259.53211779 .00000095 00000+0 27029-4 0 9994 2 42805 86.3901 76.3739 0002367 84.5072 275.6394 14.34217957431958 IRIDIUM 115 1 42806U 17039D 25259.53908661 .00000133 00000+0 33481-4 0 9990 2 42806 86.4438 76.4623 0002877 92.2470 267.9060 14.43279440434796 IRIDIUM 118 1 42807U 17039E 25259.61165405 .00000041 00000+0 74020-5 0 9994 2 42807 86.3925 108.0252 0001953 91.9211 268.2209 14.34217762430738 IRIDIUM 117 1 42808U 17039F 25259.56091794 .00000112 00000+0 32797-4 0 9991 2 42808 86.3924 108.0066 0002292 91.0971 269.0488 14.34219651430751 IRIDIUM 126 1 42809U 17039G 25259.58628276 .00000095 00000+0 26863-4 0 9992 2 42809 86.3927 108.0428 0002113 93.4056 266.7381 14.34217963430737 IRIDIUM 124 1 42810U 17039H 25259.40358388 .00000398 00000+0 11246-3 0 9993 2 42810 86.4480 44.7997 0002251 89.3338 270.8120 14.43279506435622 IRIDIUM 128 1 42811U 17039J 25259.57702256 .00000010 00000+0 -33582-5 0 9990 2 42811 86.3999 139.5571 0002278 77.7561 282.3890 14.34217712430769 IRIDIUM 121 1 42812U 17039K 25259.60531077 .00000107 00000+0 31284-4 0 9998 2 42812 86.3927 108.0606 0002202 84.7173 275.4274 14.34217762430613 IRIDIUM 133 1 42955U 17061A 25259.39942904 .00000124 00000+0 37057-4 0 9995 2 42955 86.3998 139.7423 0002192 84.2362 275.9083 14.34217955415531 IRIDIUM 100 1 42956U 17061B 25259.60239279 .00000036 00000+0 59444-5 0 9991 2 42956 86.3996 139.5827 0002263 87.1746 272.9709 14.34217771415564 IRIDIUM 122 1 42957U 17061C 25259.43114064 .00000138 00000+0 42334-4 0 9999 2 42957 86.3996 139.6536 0002204 86.2151 273.9296 14.34218340415541 IRIDIUM 129 1 42958U 17061D 25259.59604894 .00000060 00000+0 14509-4 0 9999 2 42958 86.3998 139.6488 0001719 90.1217 270.0175 14.34217862415583 IRIDIUM 119 1 42959U 17061E 25259.42479967 .00000021 00000+0 31354-6 0 9999 2 42959 86.3999 139.7143 0002038 92.7105 267.4325 14.34217727415579 IRIDIUM 107 1 42960U 17061F 25259.58336610 .00000180 00000+0 57165-4 0 9997 2 42960 86.3998 139.6683 0002456 91.7548 268.3929 14.34220614415605 IRIDIUM 132 1 42961U 17061G 25259.58970737 .00000032 00000+0 42735-5 0 9996 2 42961 86.4000 139.6467 0002139 86.5497 273.5944 14.34217874415603 IRIDIUM 136 1 42962U 17061H 25259.41211490 -.00000039 00000+0 -20963-4 0 9990 2 42962 86.4000 139.7261 0002123 90.2671 269.8768 14.34217540415596 IRIDIUM 139 1 42963U 17061J 25259.41845730 .00000120 00000+0 35671-4 0 9992 2 42963 86.4000 139.7813 0002336 87.3454 272.8009 14.34218185415602 IRIDIUM 125 1 42964U 17061K 25259.61507773 .00000060 00000+0 14402-4 0 9999 2 42964 86.4002 139.7553 0002297 98.4119 261.7337 14.34218061415641 IRIDIUM 135 1 43070U 17083A 25259.58920079 .00000049 00000+0 10390-4 0 9995 2 43070 86.3906 76.3864 0002084 84.5968 275.5466 14.34217752404937 IRIDIUM 138 1 43071U 17083B 25259.54480391 .00000123 00000+0 36953-4 0 9996 2 43071 86.3898 76.0638 0001895 102.7429 257.3979 14.34217238404912 IRIDIUM 116 1 43072U 17083C 25259.58287143 .00000108 00000+0 31535-4 0 9995 2 43072 86.3906 76.3784 0002293 83.9851 276.1607 14.34216912404959 IRIDIUM 130 1 43073U 17083D 25259.55114771 .00000013 00000+0 -25175-5 0 9999 2 43073 86.3914 76.6407 0002382 86.9530 273.1938 14.34217551404897 IRIDIUM 151 1 43074U 17083E 25259.52577607 -.00000010 00000+0 -10610-4 0 9993 2 43074 86.3906 76.4539 0002132 84.2611 275.8828 14.34217532404916 IRIDIUM 134 1 43075U 17083F 25259.56383299 .00000042 00000+0 80489-5 0 9995 2 43075 86.3909 76.4423 0002443 88.2047 271.9429 14.34217741404886 IRIDIUM 137 1 43076U 17083G 25259.57651793 .00000039 00000+0 68835-5 0 9991 2 43076 86.3910 76.5243 0002163 72.5626 287.5806 14.34217672404951 IRIDIUM 141 1 43077U 17083H 25259.57017459 .00000018 00000+0 -80982-6 0 9993 2 43077 86.3905 76.3730 0001921 92.3471 267.7945 14.34217598404955 IRIDIUM 153 1 43078U 17083J 25259.38281671 .00000273 00000+0 90302-4 0 9999 2 43078 86.3959 44.9099 0002037 103.0223 257.1200 14.34218476406032 IRIDIUM 131 1 43079U 17083K 25259.55748928 .00000087 00000+0 24035-4 0 9995 2 43079 86.3912 76.5462 0001986 89.6405 270.5018 14.34217835404885 IRIDIUM 144 1 43249U 18030A 25259.38915891 .00000191 00000+0 61097-4 0 9998 2 43249 86.3956 44.8429 0002182 90.9853 269.1593 14.34217677390895 IRIDIUM 149 1 43250U 18030B 25258.90712251 .00000130 00000+0 39245-4 0 9995 2 43250 86.3955 45.0146 0002201 89.9589 270.1859 14.34218327390846 IRIDIUM 157 1 43251U 18030C 25259.41452931 .00000168 00000+0 53023-4 0 9990 2 43251 86.3957 44.8496 0001905 91.9802 268.1612 14.34218639390890 IRIDIUM 140 1 43252U 18030D 25259.50332631 .00000186 00000+0 59411-4 0 9992 2 43252 86.3958 44.8257 0002291 92.0170 268.1288 14.34218645390960 IRIDIUM 145 1 43253U 18030E 25259.49064176 .00000127 00000+0 38274-4 0 9996 2 43253 86.3957 44.8037 0002459 85.3994 274.7482 14.34218294390892 IRIDIUM 146 1 43254U 18030F 25259.12277144 .00000113 00000+0 33400-4 0 9999 2 43254 86.3955 44.9707 0002403 87.2730 272.8741 14.34218109390852 IRIDIUM 148 1 43255U 18030G 25259.37013050 .00000265 00000+0 87515-4 0 9995 2 43255 86.3957 44.9062 0002063 88.4356 271.7076 14.34217513390923 IRIDIUM 142 1 43256U 18030H 25259.47795673 .00000076 00000+0 20016-4 0 9998 2 43256 86.3954 44.7601 0002484 83.2186 276.9292 14.34218005390901 IRIDIUM 150 1 43257U 18030J 25259.37647470 .00000116 00000+0 34406-4 0 9992 2 43257 86.3957 44.9099 0002365 88.7967 271.3500 14.34218291390912 IRIDIUM 143 1 43258U 18030K 25259.63652157 .00000053 00000+0 11806-4 0 9999 2 43258 86.3962 44.8831 0002522 85.6071 274.5413 14.34218228390883 IRIDIUM 161 1 43478U 18047C 25259.58951882 .00000332 00000+0 92779-4 0 9990 2 43478 86.4542 202.7456 0002143 87.6667 272.4779 14.43281504385672 IRIDIUM 152 1 43479U 18047D 25259.53947002 .00000238 00000+0 77970-4 0 9996 2 43479 86.4016 202.6273 0002255 88.8479 271.2976 14.34219481383267 IRIDIUM 147 1 43480U 18047E 25259.54581235 .00000178 00000+0 56463-4 0 9998 2 43480 86.4018 202.6250 0002132 83.4072 276.7367 14.34218894383261 IRIDIUM 110 1 43481U 18047F 25259.55215465 .00000075 00000+0 19738-4 0 9999 2 43481 86.4020 202.7069 0001838 92.7021 267.4386 14.34217787383250 IRIDIUM 162 1 43482U 18047G 25259.58321232 .00000326 00000+0 90908-4 0 9990 2 43482 86.4540 202.6425 0002201 92.2673 267.8780 14.43279498385662 IRIDIUM 160 1 43569U 18061A 25259.49799111 .00000054 00000+0 12136-4 0 9992 2 43569 86.4048 171.1740 0001970 86.3781 273.7641 14.34217834374146 IRIDIUM 166 1 43570U 18061B 25259.45359397 -.00000004 00000+0 -86352-5 0 9997 2 43570 86.4047 171.1467 0002227 79.3927 280.7520 14.34217531374163 IRIDIUM 158 1 43571U 18061C 25259.49164897 .00000035 00000+0 54674-5 0 9995 2 43571 86.4046 171.1408 0002225 88.4621 271.6830 14.34217623374130 IRIDIUM 165 1 43572U 18061D 25259.51701874 .00000067 00000+0 16698-4 0 9999 2 43572 86.4046 171.1711 0002230 80.9957 279.1491 14.34218457374168 IRIDIUM 155 1 43573U 18061E 25259.47896432 .00000065 00000+0 16070-4 0 9992 2 43573 86.4043 171.0700 0002416 86.0518 274.0954 14.34217700374123 IRIDIUM 154 1 43574U 18061F 25259.45993318 .00000253 00000+0 83152-4 0 9996 2 43574 86.4047 171.1976 0002211 82.5155 277.6292 14.34218820374178 IRIDIUM 163 1 43575U 18061G 25259.51067680 .00000105 00000+0 30606-4 0 9990 2 43575 86.4043 171.1006 0002154 88.4325 271.7117 14.34218002374150 IRIDIUM 156 1 43576U 18061H 25259.48530716 .00000074 00000+0 19321-4 0 9998 2 43576 86.4044 171.1181 0002571 85.0422 275.1067 14.34217985374140 IRIDIUM 164 1 43577U 18061J 25259.46627861 .00000012 00000+0 -26817-5 0 9997 2 43577 86.4045 171.1620 0002235 78.6717 281.4730 14.34217861374186 IRIDIUM 159 1 43578U 18061K 25259.50434950 .00000219 00000+0 71006-4 0 9995 2 43578 86.4044 171.0888 0002058 82.3438 277.7992 14.34218748374156 IRIDIUM 180 1 43922U 19002A 25259.57359863 .00000062 00000+0 15233-4 0 9996 2 43922 86.3926 108.0043 0002051 90.5185 269.6246 14.34217877349777 IRIDIUM 176 1 43923U 19002B 25259.31708540 .00000770 00000+0 11817-3 0 9998 2 43923 86.6051 108.0951 0002929 93.2058 266.9495 14.72262651358959 IRIDIUM 168 1 43924U 19002C 25259.56725579 .00000092 00000+0 25741-4 0 9996 2 43924 86.3928 108.0766 0002122 88.8325 271.3114 14.34218146349750 IRIDIUM 173 1 43925U 19002D 25259.55457015 .00000173 00000+0 54740-4 0 9994 2 43925 86.3926 107.9821 0002169 92.5244 267.6201 14.34218180349733 IRIDIUM 169 1 43926U 19002E 25259.41117341 .00000270 00000+0 81820-4 0 9992 2 43926 86.4252 139.6665 0003175 102.3790 257.7764 14.38610261350869 IRIDIUM 172 1 43927U 19002F 25259.61799610 .00000011 00000+0 -31115-5 0 9997 2 43927 86.3926 107.9622 0001732 90.2279 269.9115 14.34217769349755 IRIDIUM 175 1 43928U 19002G 25259.51613395 .00001062 00000+0 16441-3 0 9991 2 43928 86.1474 55.3077 0002964 77.5693 282.5855 14.72249028358979 IRIDIUM 171 1 43929U 19002H 25259.59896798 .00000209 00000+0 67480-4 0 9992 2 43929 86.3935 108.2468 0002319 80.7689 279.3769 14.34218855349746 IRIDIUM 170 1 43930U 19002J 25259.32327607 .00000776 00000+0 11911-3 0 9999 2 43930 86.6051 108.0967 0002413 85.4035 274.7458 14.72260153358962 IRIDIUM 167 1 43931U 19002K 25259.59262722 .00000057 00000+0 13408-4 0 9991 2 43931 86.3925 107.9932 0002541 83.5169 276.6316 14.34217967349742 IRIDIUM 181 1 56726U 23068S 25259.46334209 .00000332 00000+0 92580-4 0 9994 2 56726 86.4581 171.1522 0002289 69.5341 290.6106 14.43313881122957 IRIDIUM 177 1 56727U 23068T 25259.60368454 .00000385 00000+0 47133-4 0 9992 2 56727 86.1918 98.7307 0002426 81.8762 278.2734 14.80229481125899 IRIDIUM 174 1 56728U 23068U 25259.58280722 .00000717 00000+0 10977-3 0 9995 2 56728 86.6060 108.1079 0002156 96.1091 264.0372 14.72251211125763 IRIDIUM 178 1 56729U 23068V 25259.59282375 .00001087 00000+0 13957-3 0 9995 2 56729 86.6572 139.7126 0002546 87.7977 272.3536 14.80233693125898 IRIDIUM 179 1 56730U 23068W 25259.45224764 .00001172 00000+0 15078-3 0 9991 2 56730 86.6830 147.9198 0002895 83.4831 276.6720 14.80236281125872